Location: Pasarilla del Rebollar
(40.6790°N, 5.0062°W)
Time: 08:44:39
(UTC+00:00)

CZ-3 Stage 3 - Pass Details

Date: 22 April 2026
Orbit: 211 x 9210 km, 30.8° (Epoch: 15 May)

Event Time Altitude Azimuth Distance (km) Brightness Sun altitude
Exits shadow 03:04:08 40° 195° (SSW) 1,802 3.4 -24.8°
Maximum altitude 03:05:49 45° 164° (SSE) 1,976 3.8 -24.5°
Drops below altitude 10° 03:23:41 10° 100° (E) 7,552 7.5 -22.0°
Sets 03:34:13 0° 98° (E) 10,385 8.4 -20.5°
